Skip to main content Skip to accessibility
This website is not compatible with your web browser. You should install a newer browser. If you live in Jersey and need help upgrading call the States of Jersey web team on 440099.
Homegov.je

Information and public services for the Island of Jersey

L'înformâtion et les sèrvices publyis pouor I'Île dé Jèrri

  • Choose the service you want to log in to:

  • gov.je

    Update your notification preferences

  • one.gov.je

    Access government services

  • CAESAR

    Clear goods through customs or claim relief

  • Talentlink

    View or update your States of Jersey job application

CI Airfield TAFs

JERSEY - EGJJ

EGJJ 251356Z 2515/2600 24017KT 9999 FEW015CB TEMPO 2515/2600 24020G30KT 6000 SHRA BKN015CB PROB30 TEMPO 2515/2600 3000 +TSRAGS BKN010CB=

GUERNSEY - EGJB

EGJB 251356Z 2515/2600 24018KT 9999 FEW015CB TEMPO 2515/2600 24022G32KT 6000 SHRA BKN015CB PROB30 TEMPO 2515/2600 3000 +TSRAGS BKN010CB=

ALDERNEY - EGJA

EGJA 251356Z 2515/2600 24020KT 9999 FEW015CB TEMPO 2515/2600 24022G32KT 6000 SHRA BKN015CB PROB30 TEMPO 2515/2600 3000 +TSRAGS BKN010CB=

​Apologies to the disruption to normal service. Commercial Aviation Services are available from the Jersey Met Forecaster 01534 448765.

Back to top
rating button